Regional Weather Roundup
Issued by NWS

Home | Current Version | Previous Version | Graphics & Text | Print | Product List | Glossary On
Versions: 1 2 3 4 5 6 7 8 9 10 11 12 13 14 15 16 17 18 19 20 21 22 23 24 25 26 27 28 29 30 31 32 33 34 35 36 37 38 39 40 41 42 43 44 45 46 47 48 49 50
000
ASUS43 KLOT 302008
RWRIL

ILLINOIS REGIONAL WEATHER ROUNDUP
NATIONAL WEATHER SERVICE CHICAGO/ROMEOVILLE IL
300 PM CDT THU MAR 30 2017

NOTE: "FAIR" INDICATES FEW OR NO CLOUDS BELOW 12,000 FEET WITH NO
SIGNIFICANT WEATHER AND/OR OBSTRUCTIONS TO VISIBILITY.

* THESE STATIONS ARE NOT UNDER NWS QUALITY CONTROL. THEY ALSO MAY NOT
  REPORT WEATHER SUCH AS PRECIPITATION OR FOG.

ILZ001-002-007-009-015-016-024-302100-
NORTHWEST ILLINOIS

CITY           SKY/WX    TMP DP  RH WIND       PRES   REMARKS
MOLINE         CLOUDY    45  41  86 NE12      29.58F FOG
STERLING*      CLOUDY    44  42  93 N6        29.61R
SAVANNA*       CLOUDY    42  39  88 NE9       29.63R
$$

ILZ003-004-008-010-011-017-018-302100-
NORTH CENTRAL ILLINOIS

CITY           SKY/WX    TMP DP  RH WIND       PRES   REMARKS
ROCKFORD       CLOUDY    43  40  89 E30G39    29.50F
FREEPORT*      CLOUDY    40  39  95 N8        29.64R
ROCHELLE*      CLOUDY    44  42  95 E21G29    29.51F
DE KALB*       CLOUDY    43  42  96 NE22G29   29.53F
PERU*          CLOUDY    47  45  90 E7        29.58R
$$

ILZ005-006-012>014-019>023-302100-
NORTHEAST ILLINOIS

CITY           SKY/WX    TMP DP  RH WIND       PRES   REMARKS
CHICAGO-OHARE  LGT RAIN  43  40  89 NE17G24   29.58F
CHICAGO-MIDWAY LGT RAIN  44  43  96 NE23G31   29.55F FOG
AURORA         CLOUDY    44  41  89 NE23G32   29.52F
LANSING*       CLOUDY    45  45 100 NE6       29.63F
JOLIET*        CLOUDY    47  46  95 E10       29.59R
WAUKEGAN       LGT RAIN  40  40 100 NE9       29.70S FOG
DUPAGE AIRPORT LGT RAIN  42  42 100 NE26G35   29.50F
KANKAKEE*      CLOUDY    50  50  98 E13       29.58F
WHEELING       LGT RAIN  41  41 100 NE16      29.65F FOG
MORRIS*        CLOUDY    47  45  95 E12G17    29.58R
ROMEOVILLE*    CLOUDY    44  44 100 E16G26    29.59F
NORTHERLY ISL    N/A     41  39  93 N10         N/A
$$

LMZ740>746-302100-
SOUTHERN LAKE MICHIGAN

STATION/POSITION SKY/WX   TEMP    WIND        PRES    VSBY  WAVE
                          AIR SEA DIR/SP/G                  HT/PER
                          (F)     (DEG/KT/KT) (MB)    (MI)  (FT/S)
HARRISON CRIB              41     360/  9/  9   N/A
BURNHAM HARBOR             40      10/ 18       N/A
CALUMET HARBOR             40     360/ 12/ 18 1001.7F
BURNS HARBOR               47     260/ 14/ 24 1005.1R
MICHIGAN CITY              47     110/ 13/ 16   N/A
$$

ILZ025>027-034>036-040-047-049-050-058-095>099-302100-
WEST-CENTRAL ILLINOIS

CITY           SKY/WX    TMP DP  RH WIND       PRES   REMARKS
QUINCY         LGT RAIN  53  52  96 NW8       29.53S
GALESBURG*     CLOUDY    47  46  99 NE6       29.56R
MACOMB*        TSTM      49  49  99 N5        29.58R
JACKSONVILLE*  CLOUDY    57  55  90 CALM      29.52R
PITTSFIELD*    DRIZZLE   57  56  94 W9        29.55R
$$

ILZ028>032-037-038-041>044-048-051>054-059>061-302100-
CENTRAL ILLINOIS

CITY           SKY/WX    TMP DP  RH WIND       PRES   REMARKS
PONTIAC        CLOUDY    53  52  97 E16       29.55S
BLOOMINGTON    LGT RAIN  59  57  93 S9        29.55R
DECATUR        CLOUDY    64  60  87 CALM      29.50F THUNDER
PEORIA         CLOUDY    54  52  93 NE8       29.56R
LACON*         CLOUDY    50  49  95 E5        29.56R
LINCOLN*       TSTM      61  61 100 CALM      29.52S
SPRINGFIELD    CLOUDY    57  53  86 S6        29.54F
TAYLORVILLE    TSTM      56  54  95 W8        29.55R
$$

ILZ033-039-045-046-055>057-062-063-302100-
EAST-CENTRAL ILLINOIS

CITY           SKY/WX    TMP DP  RH WIND       PRES   REMARKS
CHAMPAIGN      CLOUDY    65  59  81 SW8       29.53F
RANTOUL*       CLOUDY    67  63  85 S12       29.53F
MATTOON        PTSUNNY   68  58  70 S10G18    29.51F
PARIS*         MOSUNNY   70  61  73 S21G26    29.55F
$$

ILZ079-100>102-302100-
SOUTHWEST ILLINOIS

CITY           SKY/WX    TMP DP  RH WIND       PRES   REMARKS
ALTON          CLOUDY    59  57  94 W8        29.53
BELLEVILLE     CLOUDY    63  61  93 W8G17     29.51F
CAHOKIA*       CLOUDY    64  55  72 W9        29.53S
SPARTA*        CLOUDY    62  59  87 W13       29.54S
$$

ILZ064>066-069>071-074>076-080>082-084>086-088>090-092>094-302100-
SOUTH-CENTRAL ILLINOIS

CITY           SKY/WX    TMP DP  RH WIND       PRES   REMARKS
CARBONDALE     PTSUNNY   65  62  90 S17       29.54R
CAIRO*         CLOUDY    63  59  87 S13G18    29.57F
EFFINGHAM*     CLOUDY    71  57  61 S14G21    29.52S
MARION         CLOUDY    63  59  88 S21G32    29.56R
MT. VERNON     TSTM      64  56  75 SW22G44   29.54R
CENTRALIA*     LGT RAIN  61  59  95 W15       29.53R
SALEM*         PTSUNNY   72  56  56 SW28      29.53R
METROPOLIS*    RAIN      72  56  57 S16G26    29.55F
$$

ILZ067-068-072-073-078-083-087-091-302100-
SOUTHEAST ILLINOIS

CITY           SKY/WX    TMP DP  RH WIND       PRES   REMARKS
LAWRENCEVILLE  MOSUNNY   76  56  49 S23G30    29.53F
FLORA*         PTSUNNY   71  61  71 S13       29.52F THUNDER
FAIRFIELD*     PTSUNNY   72  58  61 SW12      29.52F
HARRISBURG*    CLOUDY    67  60  78 S14G21    29.55R
ROBINSON*      MOSUNNY   74  57  56 SW17G26   29.53F
CARMI*         TSTM      63  57  80 S10G47    29.56R VSB 1
$$

ABBREVIATIONS USED IN REMARKS
   TC - TEMPERATURE IN CELSIUS
  WCI - WIND CHILL INDEX
   HX - HEAT INDEX
  VSB - VISIBILITY
$$




USA.gov is the U.S. government's official web portal to all federal, state and local government web resources and services.